| time (UTC) | temp F | wind direction | speed MPH | gust MPH | rain 1hr in | rain 24hr in | rain mn in | humidity % | barometer mb |
| 20260510133027 | 56 | 140 | 0.0 | 1.0 | 0.00 | 0.00 | 0.00 | 49 | 1014.8 |
| 20260510131522 | 57 | 96 | 0.0 | 0.0 | 0.00 | 0.00 | 0.00 | 47 | 1015.1 |
| 20260510130018 | 58 | 92 | 0.0 | 1.0 | 0.00 | 0.00 | 0.00 | 47 | 1015.1 |
| 20260510124514 | 58 | 71 | 0.0 | 4.0 | 0.00 | 0.00 | 0.00 | 46 | 1015.2 |
| 20260510123009 | 57 | 134 | 0.0 | 1.0 | 0.00 | 0.00 | 0.00 | 46 | 1015.6 |
| 20260510121506 | 57 | 162 | 0.0 | 7.0 | 0.00 | 0.00 | 0.00 | 44 | 1015.8 |
| 20260510120001 | 58 | 86 | 0.0 | 3.0 | 0.00 | 0.00 | 0.00 | 44 | 1016.1 |
| 20260510114606 | 58 | 147 | 0.0 | 3.0 | 0.00 | 0.00 | 0.00 | 45 | 1016.3 |
| 20260510113053 | 58 | 146 | 0.0 | 11.0 | 0.00 | 0.00 | 0.00 | 42 | 1016.3 |
| 20260510111549 | 59 | 133 | 0.0 | 1.0 | 0.00 | 0.00 | 0.00 | 42 | 1016.6 |
| 20260510110044 | 59 | 138 | 0.0 | 1.0 | 0.00 | 0.00 | 0.00 | 42 | 1016.7 |
| 20260510104544 | 59 | 205 | 0.0 | 1.0 | 0.00 | 0.00 | 0.00 | 42 | 1016.8 |
| 20260510103042 | 59 | 112 | 0.0 | 4.0 | 0.00 | 0.00 | 0.00 | 42 | 1017.0 |
| 20260510101532 | 59 | 96 | 0.0 | 2.0 | 0.00 | 0.00 | 0.00 | 47 | 1017.2 |
| 20260510100033 | 58 | 81 | 0.0 | 0.0 | 0.00 | 0.00 | 0.00 | 46 | 1017.3 |
| 20260510094522 | 58 | 112 | 0.0 | 5.0 | 0.00 | 0.00 | 0.00 | 47 | 1017.5 |
| 20260510093018 | 57 | 34 | 0.0 | 0.0 | 0.00 | 0.00 | 0.00 | 48 | 1017.8 |
| 20260510091513 | 58 | 159 | 0.0 | 1.0 | 0.00 | 0.00 | 0.00 | 45 | 1018.0 |
| 20260510090009 | 58 | 98 | 0.0 | 1.0 | 0.00 | 0.00 | 0.00 | 47 | 1018.2 |
| 20260510084507 | 57 | 73 | 0.0 | 4.0 | 0.00 | 0.00 | 0.00 | 49 | 1018.4 |
| 20260510083108 | 57 | 40 | 0.0 | 1.0 | 0.00 | 0.00 | 0.00 | 50 | 1018.5 |
| 20260510081555 | 56 | 82 | 0.0 | 3.0 | 0.00 | 0.00 | 0.00 | 50 | 1018.7 |
| 20260510080059 | 55 | 101 | 0.0 | 1.0 | 0.00 | 0.00 | 0.00 | 53 | 1019.0 |
| 20260510074601 | 55 | 96 | 0.0 | 1.0 | 0.00 | 0.00 | 0.00 | 53 | 1019.2 |
| 20260510073047 | 55 | 113 | 0.0 | 2.0 | 0.00 | 0.00 | 0.00 | 55 | 1019.3 |
| 20260510071545 | 54 | 52 | 0.0 | 1.0 | 0.00 | 0.00 | 0.00 | 56 | 1019.5 |
| 20260510070034 | 53 | 121 | 0.0 | 3.0 | 0.00 | 0.00 | 0.00 | 57 | 1019.7 |
| 20260510064529 | 52 | 157 | 0.0 | 0.0 | 0.00 | 0.00 | 0.00 | 57 | 1019.8 |
| 20260510063025 | 51 | 118 | 0.0 | 0.0 | 0.00 | 0.00 | 0.00 | 57 | 1019.9 |
| 20260510061520 | 51 | 137 | 0.0 | 1.0 | 0.00 | 0.00 | 0.00 | 57 | 1020.0 |
| 20260510060016 | 50 | 130 | 0.0 | 0.0 | 0.00 | 0.00 | 0.00 | 57 | 1020.1 |
| 20260510054516 | 48 | 144 | 0.0 | 0.0 | 0.00 | 0.00 | 0.00 | 55 | 1020.4 |
| 20260510053006 | 47 | 154 | 0.0 | 0.0 | 0.00 | 0.00 | 0.00 | 52 | 1020.5 |
| 20260510051504 | 45 | 27 | 0.0 | 1.0 | 0.00 | 0.00 | 0.00 | 31 | 1020.6 |
| 20260510050100 | 44 | 169 | 0.0 | 0.0 | 0.00 | 0.00 | 0.00 | 9 | 1020.6 |
| 20260510044556 | 43 | 58 | 0.0 | 0.0 | 0.00 | 0.00 | 0.00 | 1 | 1020.7 |
| 20260510043058 | 40 | 74 | 0.0 | 0.0 | 0.00 | 0.00 | 0.00 | 1 | 1020.9 |
| 20260510041605 | 38 | 96 | 0.0 | 0.0 | 0.00 | 0.00 | 0.00 | 1 | 1020.9 |
| 20260510040044 | 36 | 96 | 0.0 | 0.0 | 0.00 | 0.00 | 0.00 | 1 | 1021.0 |
| 20260510034536 | 34 | 96 | 0.0 | 0.0 | 0.00 | 0.00 | 0.00 | 1 | 1021.0 |
| 20260510033033 | 32 | 96 | 0.0 | 0.0 | 0.00 | 0.00 | 0.00 | 1 | 1021.1 |
| 20260510031528 | 31 | 96 | 0.0 | 0.0 | 0.00 | 0.00 | 0.00 | 1 | 1021.3 |
| 20260510030023 | 31 | 96 | 0.0 | 0.0 | 0.00 | 0.00 | 0.00 | 1 | 1021.5 |
| 20260510024522 | 30 | 96 | 0.0 | 0.0 | 0.00 | 0.00 | 0.00 | 1 | 1021.5 |
| 20260510023014 | 30 | 96 | 0.0 | 0.0 | 0.00 | 0.00 | 0.00 | 1 | 1021.7 |
| 20260510021509 | 29 | 96 | 0.0 | 0.0 | 0.00 | 0.00 | 0.00 | 1 | 1021.8 |
| 20260510020006 | 29 | 96 | 0.0 | 0.0 | 0.00 | 0.00 | 0.00 | 1 | 1022.0 |
| 20260510014501 | 29 | 96 | 0.0 | 0.0 | 0.00 | 0.00 | 0.00 | 1 | 1022.1 |
| 20260510013107 | 29 | 96 | 0.0 | 0.0 | 0.00 | 0.00 | 0.00 | 1 | 1022.2 |
| 20260510011553 | 29 | 96 | 0.0 | 0.0 | 0.00 | 0.00 | 0.00 | 1 | 1022.4 |
| 20260510010100 | 29 | 96 | 0.0 | 0.0 | 0.00 | 0.00 | 0.00 | 3 | 1022.5 |
| 20260510004546 | 29 | 96 | 0.0 | 0.0 | 0.00 | 0.00 | 0.00 | 10 | 1022.6 |
| 20260510003040 | 29 | 96 | 0.0 | 0.0 | 0.00 | 0.00 | 0.00 | 16 | 1022.8 |
| 20260510001535 | 29 | 96 | 0.0 | 0.0 | 0.00 | 0.00 | 0.00 | 23 | 1022.9 |
| 20260510000031 | 29 | 96 | 0.0 | 0.0 | 0.00 | 0.00 | 0.00 | 27 | 1023.1 |
| 20260509234527 | 29 | 96 | 0.0 | 0.0 | 0.00 | 0.00 | 0.00 | 31 | 1023.2 |
| 20260509233024 | 30 | 96 | 0.0 | 0.0 | 0.00 | 0.00 | 0.00 | 36 | 1023.3 |
| 20260509231529 | 30 | 96 | 0.0 | 0.0 | 0.00 | 0.00 | 0.00 | 42 | 1023.4 |
| 20260509230019 | 31 | 96 | 0.0 | 0.0 | 0.00 | 0.00 | 0.00 | 47 | 1023.6 |
| 20260509224514 | 32 | 96 | 0.0 | 0.0 | 0.00 | 0.00 | 0.00 | 50 | 1023.8 |
| 20260509223015 | 32 | 96 | 0.0 | 0.0 | 0.00 | 0.00 | 0.00 | 50 | 1023.9 |
| 20260509221525 | 33 | 96 | 0.0 | 0.0 | 0.00 | 0.00 | 0.00 | 54 | 1023.9 |
| 20260509220007 | 34 | 96 | 0.0 | 0.0 | 0.00 | 0.00 | 0.00 | 59 | 1023.8 |
| 20260509214504 | 35 | 96 | 0.0 | 0.0 | 0.00 | 0.00 | 0.00 | 62 | 1023.9 |
| 20260509213103 | 36 | 96 | 0.0 | 0.0 | 0.00 | 0.00 | 0.00 | 63 | 1024.0 |
| 20260509211556 | 37 | 96 | 0.0 | 0.0 | 0.00 | 0.00 | 0.00 | 63 | 1024.2 |
| 20260509210059 | 38 | 96 | 0.0 | 0.0 | 0.00 | 0.00 | 0.00 | 63 | 1024.1 |
| 20260509204549 | 38 | 96 | 0.0 | 0.0 | 0.00 | 0.00 | 0.00 | 62 | 1024.2 |
| 20260509203050 | 39 | 96 | 0.0 | 0.0 | 0.00 | 0.00 | 0.00 | 61 | 1024.1 |
| 20260509201541 | 40 | 96 | 0.0 | 0.0 | 0.00 | 0.00 | 0.00 | 61 | 1024.3 |
| 20260509200042 | 40 | 96 | 0.0 | 0.0 | 0.00 | 0.00 | 0.00 | 60 | 1024.4 |
| 20260509194531 | 41 | 96 | 0.0 | 0.0 | 0.00 | 0.00 | 0.00 | 60 | 1024.6 |
| 20260509193027 | 42 | 96 | 0.0 | 0.0 | 0.00 | 0.00 | 0.00 | 59 | 1024.7 |
| 20260509191524 | 43 | 96 | 0.0 | 0.0 | 0.00 | 0.00 | 0.00 | 57 | 1024.9 |
| 20260509190029 | 44 | 96 | 0.0 | 0.0 | 0.00 | 0.00 | 0.00 | 56 | 1024.9 |
| 20260509184526 | 46 | 96 | 0.0 | 0.0 | 0.00 | 0.00 | 0.00 | 53 | 1025.0 |
| 20260509183012 | 47 | 96 | 0.0 | 0.0 | 0.00 | 0.00 | 0.00 | 52 | 1025.1 |
| 20260509181507 | 48 | 96 | 0.0 | 0.0 | 0.00 | 0.00 | 0.00 | 48 | 1025.1 |
| 20260509180002 | 49 | 96 | 0.0 | 0.0 | 0.00 | 0.00 | 0.00 | 45 | 1025.2 |
| 20260509174558 | 50 | 96 | 0.0 | 0.0 | 0.00 | 0.00 | 0.00 | 43 | 1025.1 |
| 20260509173101 | 51 | 96 | 0.0 | 0.0 | 0.00 | 0.00 | 0.00 | 40 | 1025.2 |
| 20260509171605 | 51 | 31 | 0.0 | 0.0 | 0.00 | 0.00 | 0.00 | 42 | 1025.3 |
| 20260509170045 | 52 | 128 | 0.0 | 1.0 | 0.00 | 0.00 | 0.00 | 41 | 1025.3 |
| 20260509164548 | 53 | 179 | 0.0 | 1.0 | 0.00 | 0.00 | 0.00 | 40 | 1025.3 |
| 20260509163046 | 54 | 148 | 0.0 | 0.0 | 0.00 | 0.00 | 0.00 | 41 | 1025.5 |
| 20260509161531 | 54 | 180 | 0.0 | 0.0 | 0.00 | 0.00 | 0.00 | 38 | 1025.5 |
| 20260509160029 | 55 | 223 | 0.0 | 2.0 | 0.00 | 0.00 | 0.00 | 37 | 1025.5 |
| 20260509154522 | 56 | 143 | 0.0 | 0.0 | 0.00 | 0.00 | 0.00 | 36 | 1025.7 |
| 20260509153018 | 56 | 87 | 0.0 | 0.0 | 0.00 | 0.00 | 0.00 | 36 | 1025.8 |
| 20260509151514 | 56 | 128 | 0.0 | 1.0 | 0.00 | 0.00 | 0.00 | 35 | 1026.0 |
| 20260509150010 | 57 | 159 | 0.0 | 2.0 | 0.00 | 0.00 | 0.00 | 34 | 1026.2 |
| 20260509144506 | 57 | 130 | 0.0 | 1.0 | 0.00 | 0.00 | 0.00 | 36 | 1026.3 |
| 20260509143100 | 57 | 143 | 0.0 | 1.0 | 0.00 | 0.00 | 0.00 | 35 | 1026.4 |
| 20260509141557 | 57 | 67 | 0.0 | 2.0 | 0.00 | 0.00 | 0.00 | 33 | 1026.6 |
| 20260509140052 | 57 | 65 | 0.0 | 5.0 | 0.00 | 0.00 | 0.00 | 33 | 1026.7 |
| 20260509134556 | 57 | 355 | 0.0 | 0.0 | 0.00 | 0.00 | 0.00 | 33 | 1026.8 |